Location: *
(41.6167°N, 12.5500°E)
Time: 15:22:58
(UTC+00:00)

Daily predictions for brighter satellites

Satellite Brightness Start Highest point End
(mag) Time Altitude Azimuth Time Altitude Azimuth Time Altitude Azimuth
Cosmos 2221 2.7 19:06:05 10° N 19:10:28 79° W 19:14:50 10° S
SL-4 R/B 4.3 19:14:37 10° SE 19:15:16 10° SE 19:15:56 10° ESE
Cosmos 1461 3.5 19:11:58 10° NNW 19:15:43 40° NE 19:19:30 10° ESE
Cosmos 44 3.4 19:10:34 10° SSW 19:15:52 79° ESE 19:20:58 10° NE
USA 215 3.7 19:10:43 10° NE 19:17:14 70° NW 19:23:44 10° WSW
IRIDIUM 106 4.4 19:12:49 10° N 19:18:01 66° E 19:23:12 10° SSE
CZ-2C R/B 3.5 19:18:42 10° SE 19:23:54 48° ENE 19:28:53 10° N
Cosmos 1076 Rocket 3.7 19:19:47 10° S 19:24:09 82° W 19:28:33 10° N
Cosmos 1242 Rocket 3.4 19:23:24 10° SSE 19:26:37 30° E 19:29:53 10° NNE
Spot 2 Rocket 3.9 19:23:19 10° SE 19:28:10 47° ENE 19:33:04 10° N
MTI 4.0 19:29:23 10° NNE 19:32:27 45° E 19:35:29 10° S
DELTA 2 R/B (1) 4.4 19:31:32 10° SSW 19:36:18 29° SSE 19:41:02 10° E
Cosmos 2360 Rocket 3.4 19:32:52 10° SSE 19:37:05 22° E 19:41:18 10° NE
Aureole 1 Rocket 3.5 19:33:48 10° S 19:38:16 67° ESE 19:44:18 10° NNE
Cosmos 1980 Rocket 3.5 19:36:14 10° SW 19:41:35 44° WNW 19:46:57 10° NNE
MetOp-A 4.2 19:36:17 10° SSE 19:41:39 89° ENE 19:47:02 10° NNW
Okean 3 Rocket 3.6 19:37:13 10° S 19:41:45 79° E 19:46:18 10° N
Tiangong 2 1.2 19:38:45 10° W 19:41:54 74° N 19:44:49 11° E
Resurs 1-3 4.3 19:40:02 10° S 19:44:20 54° W 19:48:39 10° NNW
Cosmos 2151 3.2 19:41:14 10° S 19:45:23 53° E 19:49:35 10° NNE
Cosmos 1464 Rocket 4.2 19:40:32 10° SSE 19:46:38 55° E 19:52:43 10° NNE
USA 267 3.4 19:44:17 12° ESE 19:50:21 72° NE 19:56:53 10° NW
SPOT 5 4.3 19:47:10 13° ESE 19:50:32 24° ENE 19:54:25 10° NNE
Cosmos 1340 Rocket 2.9 19:50:25 10° N 19:54:31 85° W 19:58:20 12° S
Cosmos 1869 3.4 19:50:48 10° N 19:54:46 77° W 19:58:40 10° S
SL-08 RB Rocket 4.2 19:50:23 10° S 19:54:48 57° W 19:59:13 10° NNW
Cosmos 1515 Rocket 4.4 19:57:44 10° N 20:01:43 34° ENE 20:04:00 20° SE
Cosmos 1766 Rocket 3.5 19:58:09 10° S 20:02:29 86° W 20:06:50 10° N
Cosmos 1408 3.8 20:02:31 21° ESE 20:03:43 25° E 20:06:49 10° NE
H-2A R/B 3.4 19:59:12 10° SSW 20:04:16 39° W 20:09:18 10° NNW
CZ-2C R/B 2.8 19:59:13 10° NNE 20:04:18 50° E 20:08:50 13° S
USA 245 2.7 20:04:38 31° E 20:04:57 33° ENE 20:07:00 10° N
Gbstr 26 Del rocket 3.8 20:02:01 10° WSW 20:06:00 47° NNW 20:09:38 10° NE
Cosmos 2322 Rocket 2.2 20:00:43 10° SSW 20:06:24 83° ESE 20:12:09 10° NNE
Cosmos 2219 Rocket 4.0 20:08:15 12° E 20:08:24 12° E 20:10:27 10° ENE
Cosmos 1408 Rocket 3.4 20:06:13 10° S 20:10:26 78° E 20:14:46 10° N
Cosmos 2333 Rocket 4.0 20:10:24 12° E 20:10:32 12° E 20:12:49 10° ENE
SL-16 R/B 2.3 20:05:56 10° SSW 20:11:36 80° WNW 20:17:19 10° NNE
Cosmos 1238 Rocket 4.1 20:05:59 10° S 20:12:30 88° E 20:19:10 10° N
Landsat 7 4.1 20:14:19 23° SE 20:17:04 51° ENE 20:21:42 10° N
ISS -3.9 20:16:06 10° SW 20:19:26 85° SSE 20:22:47 10° NE
Cosmos 1825 3.1 20:18:47 27° ESE 20:19:33 29° E 20:22:52 10° NNE
Cosmos 2228 Rocket 3.7 20:17:38 10° N 20:21:57 41° ENE 20:23:52 27° SE
Cosmos 2322 4.4 20:20:32 23° SSE 20:22:59 32° ESE 20:27:57 10° NE
BREEZE-M DEB (TANK) 3.8 20:21:25 10° WNW 20:23:09 21° N 20:25:34 10° NE
Resurs 01 Rocket 3.5 20:20:09 10° SSW 20:23:54 27° W 20:27:40 10° NW
SWARM A 4.1 20:23:21 31° S 20:24:50 78° E 20:28:11 10° N
Thor Agena Rocket 3.5 20:22:58 10° NNE 20:27:59 60° ESE 20:31:19 21° S
Cosmos 407 Rocket 3.9 20:25:28 24° SSE 20:28:14 43° ESE 20:33:15 10° NNE
EO 1 Del DPAF 3.2 20:25:41 10° N 20:29:29 80° WNW 20:32:22 17° SSW
Cosmos 1140 Rocket 4.4 20:28:28 25° ESE 20:29:32 27° E 20:33:51 10° NE
SL-23 DEB 4.3 20:26:39 10° NW 20:31:09 51° NNE 20:32:45 27° E
USA 229 DEB 3.8 20:25:38 10° S 20:31:51 48° ESE 20:38:20 10° NE
USA 229 3.8 20:25:45 10° S 20:31:58 48° ESE 20:38:26 10° NE
Cosmos 1844 Rocket 3.7 20:26:58 10° N 20:32:10 35° ENE 20:35:04 22° ESE
Cosmos 1190 Rocket 4.4 20:30:59 27° SSE 20:33:15 42° ESE 20:38:08 10° NNE
CARTOSAT-1 3.9 20:32:21 32° SE 20:34:01 50° ENE 20:38:12 10° N
Cosmos 921 Rocket 2.9 20:29:57 10° NNW 20:34:14 82° WSW 20:36:15 31° S
MOS 1 Rocket 4.2 20:30:52 10° NE 20:34:48 29° E 20:35:32 28° ESE
NOSS 3-1 (A) 4.3 20:35:25 23° ESE 20:35:33 23° ESE 20:40:11 10° ENE
Cosmos 2263 Rocket 2.9 20:30:54 10° NW 20:36:22 49° WSW 20:40:16 19° S
Iridium 4 Rocket 4.3 20:33:28 10° N 20:39:17 59° W 20:44:28 12° SSW
ERS-1 Rocket 2.9 20:37:30 28° SSE 20:40:16 90° NE 20:45:20 10° NNW
Cosmos 1356 Rocket 3.7 20:37:58 10° N 20:42:11 53° ENE 20:43:26 38° SE
Mayak 1.0 20:41:13 10° ENE 20:42:20 12° ENE 20:42:20 12° ENE
Cosmos 2237 4.1 20:39:12 14° SSW 20:44:06 70° ESE 20:49:46 10° NNE
Cosmos 614 Rocket 4.1 20:42:50 31° SSE 20:44:56 52° ESE 20:49:51 10° NNE
Cosmos 1151 Rocket 3.6 20:41:11 10° NNW 20:45:29 55° W 20:47:55 24° SSW
Terra 2.2 20:44:26 34° SE 20:46:09 51° ENE 20:50:46 10° N
Cosmos 1892 4.2 20:44:56 10° SW 20:48:30 36° WNW 20:52:04 10° N
Cosmos 1900 4.5 20:47:22 10° SSW 20:52:32 82° WNW 20:57:43 10° NNE
SL-4 R/B 2.3 20:49:29 10° SW 20:54:15 59° SE 20:58:58 10° ENE
SPOT 1/Viking Rocket 3.7 20:51:35 29° S 20:54:15 71° WSW 20:59:27 10° NNW
Cosmos 1782 4.3 20:52:28 10° NNE 20:55:45 23° ENE 20:55:57 23° E
Landsat 4 3.6 20:52:53 10° NNE 20:56:36 64° ESE 20:56:56 60° SE
Cosmos 44 Rocket 4.3 20:51:38 10° SW 20:56:36 49° NW 21:01:32 10° NNE
Sich 1 3.9 21:00:20 32° E 21:00:20 32° E 21:04:07 10° NNE
Cosmos 1500 Rocket 3.9 20:59:22 27° SSW 21:01:43 66° W 21:06:11 10° N
COSMOS 2428 3.2 21:01:40 36° SE 21:02:35 38° ESE 21:07:50 10° NE
Nadezhda 4 Rocket 4.3 20:57:20 10° NNW 21:03:33 63° W 21:07:22 24° SSW
Cosmos 1844 4.0 21:03:19 10° NNW 21:08:49 53° ENE 21:10:44 37° ESE
Cosmos 2279 Rocket 4.4 21:07:17 36° SE 21:09:03 45° E 21:14:54 10° NNE
Cosmos 1818 4.5 21:08:03 10° NNW 21:13:10 39° NE 21:15:19 28° E
Tiangong 2 3.0 21:15:32 10° W 21:16:58 23° W 21:16:58 23° W
Cosmos 2360 Rocket 2.9 21:15:09 10° SW 21:20:38 52° WNW 21:26:10 10° NNE
Cosmos 1092 Rocket 4.1 21:14:30 10° NNW 21:20:44 72° W 21:23:30 34° S
Cosmos 2237 Rocket 3.7 21:22:48 20° E 21:22:48 20° E 21:26:00 10° NE
DELTA 2 R/B (1) 3.5 21:16:43 10° WSW 21:22:14 63° SSE 21:24:13 38° ESE
Cosmos 1428 Rocket 4.5 21:20:13 10° N 21:26:30 75° E 21:28:33 45° SSE
SPOT 5 3.8 21:26:24 30° SSW 21:28:21 42° W 21:33:02 10° NNW
Cosmos 1933 4.3 21:25:56 10° NNW 21:29:43 38° W 21:30:29 34° WSW
USA 267 4.2 21:31:37 27° SSW 21:33:39 32° SW 21:39:26 10° WNW
Cosmos 1606 3.1 21:30:00 10° NNW 21:33:41 53° W 21:33:43 52° W
Cosmos 1867 4.4 21:35:47 34° E 21:35:47 34° E 21:39:56 10° NE
Cosmos 1707 Rocket 3.5 21:30:34 10° N 21:35:00 68° E 21:35:11 67° E
Cosmos 1607 4.0 21:28:59 10° NNW 21:35:09 68° NE 21:37:04 44° ESE
Cosmos 1634 Rocket 4.3 21:37:16 30° SSW 21:40:29 63° W 21:46:41 10° N
Cosmos 676 Rocket 4.0 21:42:05 44° SW 21:43:43 75° WNW 21:48:59 10° NNE
Helios 1A 3.3 21:45:26 56° ENE 21:45:26 56° ENE 21:49:22 10° N
NOSS 3-1 (C) 3.5 21:41:02 17° SW 21:45:22 68° NW 21:51:43 10° NNE
Meteor 2-3 Rocket 4.4 21:42:58 26° SW 21:46:00 51° WNW 21:51:40 10° N
Nimbus 7 Rocket 4.4 21:43:13 10° NNE 21:49:08 66° ESE 21:50:13 55° SSE
Cosmos 1633 4.3 21:52:42 25° NE 21:52:42 25° NE 21:54:32 10° NNE
Cosmos 2219 Rocket 2.1 21:49:55 50° SSW 21:51:29 89° WNW 21:57:12 10° NNE
ASTEX 1 3.8 21:46:39 10° N 21:51:35 60° W 21:52:47 46° SW
NOSS 0 Rocket 4.1 21:51:31 49° ESE 21:51:55 49° ESE 21:57:50 10° NE
Cosmos 1741 Rocket 4.4 21:52:33 46° E 21:52:33 46° E 21:57:14 10° NNE
Cosmos 1655 Rocket 3.9 21:46:51 10° N 21:53:08 74° E 21:54:31 55° SSE
Cosmos 1805 Rocket 4.5 21:53:02 37° WSW 21:53:54 42° WNW 21:58:04 10° N
Cosmos 2333 Rocket 2.1 21:52:22 50° SSW 21:53:57 87° WNW 21:59:42 10° NNE
Cosmos 2026 Rocket 4.3 21:49:17 10° NNW 21:55:12 55° W 21:57:11 39° SW
ISS -1.1 21:53:50 10° WNW 21:56:28 21° NNW 21:59:07 10° NE
SL-8 R/B 3.6 21:51:57 10° WNW 21:56:45 79° NNE 21:57:03 75° ENE
Cosmos 1954 Rocket 4.4 21:57:21 39° SW 21:59:04 60° WNW 22:04:18 10° NNE
Cosmos 2278 Rocket 2.8 21:54:22 10° NNW 21:59:49 45° ENE 22:01:04 39° E
Cosmos 1850 Rocket 4.0 22:03:39 64° ESE 22:03:40 64° ESE 22:08:57 10° NNE
Lacrosse 5 4.3 22:00:08 10° NNW 22:03:41 19° NNE 22:07:14 10° ENE
Cosmos 2180 Rocket 4.5 22:08:21 52° SSW 22:09:56 77° W 22:16:06 10° N
ALOS 2 3.4 22:12:21 43° ENE 22:12:21 43° ENE 22:16:15 10° N
Cosmos 1666 Rocket 4.2 22:13:53 48° W 22:14:09 48° WNW 22:18:30 10° N
Cosmos 1844 Rocket 3.6 22:10:55 10° NW 22:16:00 35° WSW 22:16:43 33° WSW
Cosmos 1933 Rocket 4.2 22:17:04 48° NE 22:17:04 48° NE 22:20:35 10° NNE
Cosmos 1633 Rocket 3.5 22:17:27 53° WNW 22:17:27 53° WNW 22:21:37 10° N
Lacrosse 5 rocket 4.0 22:14:31 10° NNW 22:17:54 20° NNE 22:21:12 10° ENE
Mayak -0.7 22:14:52 10° N 22:18:55 54° WNW 22:18:55 54° WNW
GP-B 3.4 22:19:40 10° N 22:23:31 62° NE 22:23:31 62° NE
Terra 3.9 22:23:20 16° WSW 22:24:11 17° W 22:27:15 10° NW
NOSS 3-1 (A) 3.9 22:22:47 27° WSW 22:25:48 55° NW 22:32:05 10° NNE
ARGOS Delta rocket 3.8 22:27:58 70° NNW 22:27:58 70° NNW 22:32:00 10° NNW
Okean 1-7 4.5 22:25:08 10° NNE 22:28:21 28° ENE 22:28:21 28° ENE
Cosmos 1862 Rocket 4.0 22:27:36 10° NNW 22:31:16 59° NW 22:31:16 59° NW
Spot 4 4.4 22:33:22 47° W 22:33:22 47° W 22:37:49 10° NNW
Cosmos 1470 Rocket 3.9 22:34:20 60° NW 22:34:20 60° NW 22:38:09 10° N
BREEZE-M DEB (TANK) 4.3 22:30:01 10° W 22:34:07 49° NNW 22:43:00 10° ENE
SL-4 R/B 3.7 22:29:40 10° W 22:34:13 39° NNW 22:38:37 10° NE
Meteor 1-10 Rocket 4.5 22:29:16 10° NNW 22:34:47 55° W 22:35:22 53° WSW
Lacrosse 4 Rocket 3.6 22:36:58 19° ENE 22:36:58 19° ENE 22:38:42 10° NE
Helios 1B rocket 3.0 22:31:28 10° N 22:34:48 56° N 22:34:48 56° N
ATLAS CENTAUR R/B 2.3 22:32:39 10° NNW 22:37:08 47° NE 22:37:08 47° NE
NOSS 2-3 (E) 3.9 22:37:18 65° NW 22:37:20 65° NW 22:42:26 10° NNE
Cosmos 1862 4.4 22:38:08 40° NW 22:38:08 40° NW 22:41:20 10° N
Cosmos 841 Rocket 4.3 22:33:25 10° N 22:38:14 39° ENE 22:38:46 37° E
NOSS 2-3 (D) 3.9 22:40:08 66° NW 22:40:08 66° NW 22:45:09 10° NNE
Cosmos 1400 Rocket 3.6 22:37:37 10° N 22:40:48 51° N 22:40:48 51° N
SeaSat 1 2.4 22:36:57 10° NNE 22:41:54 77° WNW 22:42:01 76° WNW
Meteor 2-13 Rocket 4.3 22:36:42 10° N 22:42:49 82° W 22:43:32 70° SSW
Cosmos 2266 Rocket 4.0 22:39:03 10° NNW 22:45:23 70° W 22:46:19 61° SW
Cosmos 1812 3.9 22:42:46 10° N 22:45:24 42° N 22:45:24 42° N
Cosmos 1763 Rocket 3.4 22:41:29 10° NNW 22:46:40 77° ENE 22:46:40 77° ENE
COSMOS 2428 4.2 22:43:37 19° WSW 22:46:52 32° WNW 22:52:00 10° N
ERS-2 3.7 22:48:35 33° NNE 22:48:35 33° NNE 22:50:57 10° N
Cosmos 468 Rocket 3.9 22:42:13 10° NNW 22:47:23 78° W 22:47:23 78° W
SL-16 R/B 2.9 22:48:07 39° E 22:48:07 39° E 22:52:48 10° NE
COSMOS 2455 2.9 22:48:25 59° ESE 22:48:25 59° ESE 22:54:13 10° NE
Cosmos 1980 4.0 22:56:55 52° WSW 22:57:52 60° WNW 23:03:31 10° NNE
Cosmos 2208 Rocket 3.9 22:53:14 10° NNW 22:58:42 89° N 22:58:42 89° N
CZ-4 R/B 4.0 22:54:12 10° NNE 22:58:19 67° NE 22:58:19 67° NE
Cosmos 724 4.1 22:57:47 10° NNW 23:03:51 87° ENE 23:04:18 77° SE
Nadezhda 2 Rocket 4.3 22:58:34 10° N 23:04:50 83° E 23:05:31 71° SSE
Cosmos 2237 Rocket 2.6 23:04:36 49° W 23:05:33 56° WNW 23:11:05 10° NNE
Cosmos 1570 Rocket 4.3 23:06:33 10° NNW 23:11:15 57° W 23:11:15 57° W
SL-24 R/B - RUBIN 2 4.3 23:07:17 10° NNW 23:13:10 81° NE 23:14:03 66° SE
Meteor 1-14 Rocket 4.5 23:14:24 56° ESE 23:14:39 56° E 23:20:24 10° NNE
ATLAS 2AS CENTAUR R/B 4.1 23:17:02 26° ESE 23:17:54 27° ESE 23:24:18 10° NE
Meteor 1-18 Rocket 4.2 23:19:31 10° N 23:25:06 66° ENE 23:25:29 64° ESE
Meteor 1-25 Rocket 4.0 23:26:32 86° SSW 23:26:40 89° WNW 23:32:16 10° N
Cosmos 1745 Rocket 4.3 23:22:00 10° N 23:28:11 55° ENE 23:29:23 48° ESE
Cosmos 1814 Rocket 4.1 23:27:48 10° NNW 23:32:22 62° WNW 23:32:22 62° WNW
ISS -0.5 23:32:06 10° NW 23:34:04 15° N 23:36:02 10° NE
Cosmos 2297 3.5 23:30:45 10° NNW 23:36:25 87° ENE 23:36:42 82° SE
Meteor 1-20 Rocket 4.2 23:36:45 71° WSW 23:37:08 75° W 23:42:59 10° N
SL-08 R/B 4.3 23:32:06 10° N 23:38:18 87° E 23:39:06 70° SSE
Okean 1 4.3 23:37:22 10° N 23:40:17 46° N 23:40:17 46° N
Cosmos 2278 Rocket 3.6 23:39:00 10° NW 23:42:54 25° W 23:42:54 25° W
PSLV R/B 4.1 23:40:57 10° NNE 23:44:21 54° NNE 23:44:21 54° NNE
Lacrosse 5 2.4 23:42:37 10° NW 23:47:38 57° NE 23:48:50 44° E
Cosmos 1943 Rocket 3.5 23:45:36 10° N 23:50:34 33° ENE 23:53:28 21° ESE
ATLAS 5 CENTAUR R/B 3.3 23:45:24 10° NNW 23:50:58 45° NE 23:55:51 16° ESE
Cosmos 2221 Rocket 4.1 23:49:08 10° NNW 23:52:49 53° NW 23:52:49 53° NW
